This demonstration page uses our WeatherBlox Daily Observations layout. Learn more.

Left ArrowRight Arrow

41.86663, -103.66717

Hourly Observations for February 21, 2019

Temp ( °F °C ) Dew Point ( °F °C ) Humidity (%) Winds ( mph kmh ) Pressure ( in mb ) Visibility ( mi km ) Precip ( " mm )
12:53 am 00:53 Clear 11 -11.7 6 -14.4 81 81 E 6 9 29.94 1014 10 16 N/A
1:53 am 01:53 Clear 9 -12.8 4 -15.6 80 80 NE 3 6 29.94 1014 10 16 N/A
2:53 am 02:53 Clear 9 -12.8 5 -15 84 84 NNE 3 6 29.95 1014 10 16 N/A
3:53 am 03:53 Mostly Clear 7 -13.9 4 -15.6 87 87 N N/A 29.97 1015 10 16 N/A
4:53 am 04:53 Clear 6 -14.4 3 -16.1 87 87 E 5 7 30.01 1016 10 16 N/A
5:53 am 05:53 Mostly Cloudy 10 -12.2 5 -15 80 80 N N/A 30.02 1017 10 16 N/A
6:53 am 06:53 Cloudy 9 -12.8 6 -14.4 88 88 N N/A 30.06 1018 10 16 N/A
7:53 am 07:53 Cloudy 13 -10.6 9 -12.8 84 84 S 3 6 30.08 1019 10 16 N/A
8:53 am 08:53 Cloudy 18 -7.8 13 -10.6 81 81 N N/A 30.06 1018 10 16 N/A
9:53 am 09:53 Cloudy 26 -3.3 14 -10 60 60 ENE 13 20 30.04 1017 10 16 N/A
10:53 am 10:53 Cloudy 30 -1.1 16 -8.9 56 56 E 15 24 30.02 1017 10 16 N/A
11:51 am 11:51 Cloudy with Light Snow 28 -2 21 -6 74 74 E 16 26 30.04 1017 3 5 N/A
11:53 am 11:53 Cloudy with Light Snow 28 -2.2 21 -6.1 75 75 E 14 22 30.03 1017 3 5 N/A
12:00 pm 12:00 Cloudy with Light Snow 28 -2.2 21 -6.1 75 75 E 15 24 30.04 1017 3 4 N/A
12:17 pm 12:17 Cloudy with Light Snow 27 -2.8 22 -5.6 81 81 E 16 26 30.05 1017 1 2 N/A
12:28 pm 12:28 Mostly Cloudy with Light Snow 27 -3 23 -5 86 86 E 15 24 30.04 1017 1 1 N/A
12:44 pm 12:44 Cloudy with Light Snow 27 -3 23 -5 86 86 ENE 15 24 30.03 1017 1 2 N/A
12:53 pm 12:53 Cloudy with Light Snow 27 -2.8 23 -5 85 85 ENE 17 28 30.01 1016 2 3 0.01 0.25
1:13 pm 13:13 Cloudy with Light Snow 26 -3.3 22 -5.6 84 84 ENE 17 28 30.03 1017 4 6 N/A
1:53 pm 13:53 Cloudy 27 -2.8 23 -5 85 85 NE 21 33 30.01 1016 10 16 0.01 0.25
2:15 pm 14:15 Cloudy with Mist and Fog 28 -2.2 24 -4.4 85 85 ENE 18 30 30.02 1016 5 8 N/A
2:53 pm 14:53 Cloudy 27 -2.8 22 -5.6 81 81 ENE 21 33 30.02 1017 9 14 N/A
3:27 pm 15:27 Cloudy 26 -3.3 21 -6.1 81 81 ENE 16 26 30.05 1018 7 11 N/A
3:53 pm 15:53 Cloudy with Light Snow 25 -3.9 21 -6.1 85 85 ENE 18 30 30.06 1018 3 5 N/A
4:19 pm 16:19 Windy with Snow Likely 24 -4.4 21 -6.1 88 88 NE 21 33 30.10 1019 3 4 N/A
4:41 pm 16:41 Windy with Snow Likely 24 -4.4 20 -6.7 84 84 ENE 20 31 30.11 1020 2 2 N/A
4:53 pm 16:53 Cloudy with Light Snow 23 -5 20 -6.7 88 88 ENE 16 26 30.10 1019 1 2 N/A
5:53 pm 17:53 Cloudy with Light Snow 22 -5.6 20 -6.7 92 92 ENE 17 28 30.12 1020 2 3 N/A
6:09 pm 18:09 Cloudy with Light Snow 22 -5.6 19 -7.2 89 89 ENE 16 26 30.17 1022 2 3 N/A
6:18 pm 18:18 Cloudy with Light Snow 21 -6 19 -7 93 93 ENE 16 26 30.19 1022 2 3 N/A
6:53 pm 18:53 Cloudy with Light Snow 21 -6.1 19 -7.2 92 92 ENE 14 22 30.16 1021 3 5 0.01 0.25
7:22 pm 19:22 Cloudy with Light Snow 21 -6.1 18 -7.8 88 88 E 18 30 30.21 1023 6 10 N/A
7:53 pm 19:53 Cloudy with Light Snow 21 -6.1 18 -7.8 88 88 E 15 24 30.17 1022 6 10 N/A
8:53 pm 20:53 Cloudy 20 -6.7 17 -8.3 89 89 E 15 24 30.18 1022 10 16 N/A
9:49 pm 21:49 Cloudy 19 -7 18 -8 93 93 E 17 28 30.26 1025 10 16 N/A
9:53 pm 21:53 Cloudy 20 -6.7 17 -8.3 89 89 E 15 24 30.15 1021 10 16 N/A
10:53 pm 22:53 Cloudy 19 -7.2 17 -8.3 92 92 E 13 20 30.14 1021 10 16 N/A
11:53 pm 23:53 Cloudy 19 -7.2 17 -8.3 92 92 E 10 17 30.14 1021 10 16 N/A

Powered by AerisWeather